Time,TemperatureF,DewpointF,PressureIn,WindDirection,WindDirectionDegrees,WindSpeedMPH,WindSpeedGustMPH,Humidity,HourlyPrecipIn,Conditions,Clouds,dailyrainin,SoftwareType,DateUTC
2013-03-24 00:01:00,33.0,25.6,29.57,NW,315,9.0,20.0,74,0.00,,,0.00,Weather View 32 v70,2013-03-24 04:01:00,
2013-03-24 00:33:00,33.0,25.9,29.58,West,270,12.0,20.0,75,0.00,,,0.00,Weather View 32 v70,2013-03-24 04:33:00,
2013-03-24 01:04:00,33.0,25.9,29.58,NW,315,16.0,21.0,75,0.00,,,0.00,Weather View 32 v70,2013-03-24 05:04:00,
2013-03-24 01:31:00,33.0,25.9,29.59,WSW,247,14.0,22.0,75,0.00,,,0.00,Weather View 32 v70,2013-03-24 05:31:00,
2013-03-24 01:33:00,33.0,25.9,29.59,WSW,247,14.0,22.0,75,0.00,,,0.00,Weather View 32 v70,2013-03-24 05:33:00,
2013-03-24 02:01:00,33.0,25.9,29.60,West,270,10.0,22.0,75,0.00,,,0.00,Weather View 32 v70,2013-03-24 06:01:00,
2013-03-24 02:31:00,33.0,26.3,29.60,WNW,292,12.0,19.0,76,0.00,,,0.00,Weather View 32 v70,2013-03-24 06:31:00,
2013-03-24 03:02:00,33.0,26.6,29.61,WNW,292,11.0,19.0,77,0.00,,,0.00,Weather View 32 v70,2013-03-24 07:02:00,
2013-03-24 03:31:00,32.0,26.5,29.61,WNW,292,10.0,20.0,80,0.00,,,0.00,Weather View 32 v70,2013-03-24 07:31:00,
2013-03-24 04:02:00,32.0,26.8,29.62,WNW,292,3.0,22.0,81,0.00,,,0.00,Weather View 32 v70,2013-03-24 08:02:00,
2013-03-24 04:31:00,32.0,26.8,29.62,WNW,292,9.0,22.0,81,0.00,,,0.00,Weather View 32 v70,2013-03-24 08:31:00,
2013-03-24 05:02:00,32.0,27.1,29.64,NNW,337,6.0,21.0,82,0.00,,,0.00,Weather View 32 v70,2013-03-24 09:02:00,
2013-03-24 05:32:00,32.0,28.0,29.64,WNW,292,8.0,21.0,85,0.00,,,0.00,Weather View 32 v70,2013-03-24 09:32:00,
2013-03-24 06:01:00,32.0,28.6,29.64,WNW,292,8.0,20.0,87,0.00,,,0.00,Weather View 32 v70,2013-03-24 10:01:00,
2013-03-24 06:30:00,32.0,29.1,29.66,WNW,292,9.0,19.0,89,0.00,,,0.00,Weather View 32 v70,2013-03-24 10:30:00,
2013-03-24 06:32:00,32.0,29.1,29.66,WNW,292,9.0,19.0,89,0.00,,,0.00,Weather View 32 v70,2013-03-24 10:32:00,
2013-03-24 07:30:00,34.0,27.5,29.67,NW,315,8.0,18.0,77,0.00,,,0.00,Weather View 32 v70,2013-03-24 11:30:00,
2013-03-24 07:31:00,34.0,27.5,29.67,NW,315,8.0,18.0,77,0.00,,,0.00,Weather View 32 v70,2013-03-24 11:31:00,
2013-03-24 08:01:00,36.0,27.8,29.68,SW,225,6.0,19.0,72,0.00,,,0.00,Weather View 32 v70,2013-03-24 12:01:00,
2013-03-24 08:30:00,37.0,27.4,29.70,WNW,292,12.0,24.0,68,0.00,,,0.00,Weather View 32 v70,2013-03-24 12:30:00,
2013-03-24 08:31:00,37.0,27.4,29.70,WNW,292,12.0,24.0,68,0.00,,,0.00,Weather View 32 v70,2013-03-24 12:31:00,
2013-03-24 09:30:00,39.0,26.7,29.72,WNW,292,12.0,23.0,61,0.00,,,0.00,Weather View 32 v70,2013-03-24 13:30:00,
2013-03-24 09:31:00,39.0,26.7,29.72,WNW,292,12.0,23.0,61,0.00,,,0.00,Weather View 32 v70,2013-03-24 13:31:00,
2013-03-24 10:00:00,38.0,25.7,29.73,WNW,292,15.0,23.0,61,0.00,,,0.00,Weather View 32 v70,2013-03-24 14:00:00,
2013-03-24 10:32:00,39.0,25.5,29.72,NNW,337,12.0,22.0,58,0.00,,,0.00,Weather View 32 v70,2013-03-24 14:32:00,
2013-03-24 11:02:00,41.0,24.2,29.70,WSW,247,3.0,26.0,51,0.00,,,0.00,Weather View 32 v70,2013-03-24 15:02:00,
2013-03-24 11:31:00,41.0,24.7,29.69,West,270,9.0,28.0,52,0.00,,,0.00,Weather View 32 v70,2013-03-24 15:31:00,
2013-03-24 12:06:00,42.0,25.6,29.69,NW,315,10.0,28.0,52,0.00,,,0.00,Weather View 32 v70,2013-03-24 16:06:00,
2013-03-24 12:30:00,43.0,24.1,29.68,WSW,247,10.0,24.0,47,0.00,,,0.00,Weather View 32 v70,2013-03-24 16:30:00,
2013-03-24 13:00:00,42.0,23.7,29.68,NW,315,7.0,23.0,48,0.00,,,0.00,Weather View 32 v70,2013-03-24 17:00:00,
2013-03-24 13:01:00,42.0,23.7,29.68,NW,315,7.0,23.0,48,0.00,,,0.00,Weather View 32 v70,2013-03-24 17:01:00,
2013-03-24 14:00:00,43.0,24.1,29.68,WNW,292,16.0,29.0,47,0.00,,,0.00,Weather View 32 v70,2013-03-24 18:00:00,
2013-03-24 14:01:00,43.0,24.1,29.68,WNW,292,16.0,29.0,47,0.00,,,0.00,Weather View 32 v70,2013-03-24 18:01:00,
2013-03-24 15:00:00,43.0,24.1,29.68,WNW,292,7.0,21.0,47,0.00,,,0.00,Weather View 32 v70,2013-03-24 19:00:00,
2013-03-24 15:01:00,43.0,24.1,29.68,WNW,292,7.0,21.0,47,0.00,,,0.00,Weather View 32 v70,2013-03-24 19:01:00,
2013-03-24 15:31:00,42.0,23.2,29.69,WSW,247,7.0,21.0,47,0.00,,,0.00,Weather View 32 v70,2013-03-24 19:31:00,
2013-03-24 16:00:00,43.0,23.1,29.69,WNW,292,15.0,19.0,45,0.00,,,0.00,Weather View 32 v70,2013-03-24 20:00:00,
2013-03-24 16:01:00,43.0,23.1,29.69,WNW,292,15.0,19.0,45,0.00,,,0.00,Weather View 32 v70,2013-03-24 20:01:00,
2013-03-24 16:32:00,43.0,24.1,29.69,NNW,337,9.0,18.0,47,0.00,,,0.00,Weather View 32 v70,2013-03-24 20:32:00,
2013-03-24 17:00:00,42.0,24.2,29.69,NW,315,6.0,18.0,49,0.00,,,0.00,Weather View 32 v70,2013-03-24 21:00:00,
2013-03-24 17:02:00,42.0,24.2,29.69,NW,315,6.0,18.0,49,0.00,,,0.00,Weather View 32 v70,2013-03-24 21:02:00,
2013-03-24 17:30:00,43.0,24.1,29.69,WNW,292,7.0,17.0,47,0.00,,,0.00,Weather View 32 v70,2013-03-24 21:30:00,
2013-03-24 18:00:00,43.0,24.6,29.69,NNW,337,7.0,16.0,48,0.00,,,0.00,Weather View 32 v70,2013-03-24 22:00:00,
2013-03-24 18:02:00,43.0,24.6,29.69,NNW,337,7.0,16.0,48,0.00,,,0.00,Weather View 32 v70,2013-03-24 22:02:00,
2013-03-24 18:30:00,42.0,24.7,29.70,NNW,337,7.0,16.0,50,0.00,,,0.00,Weather View 32 v70,2013-03-24 22:30:00,
2013-03-24 19:01:00,40.0,25.5,29.72,NW,315,4.0,12.0,56,0.00,,,0.00,Weather View 32 v70,2013-03-24 23:01:00,
2013-03-24 19:32:00,38.0,25.7,29.73,NNW,337,4.0,12.0,61,0.00,,,0.00,Weather View 32 v70,2013-03-24 23:32:00,
2013-03-24 20:02:00,36.0,26.1,29.75,NNW,337,4.0,10.0,67,0.00,,,0.00,Weather View 32 v70,2013-03-25 00:02:00,
2013-03-24 20:33:00,36.0,27.5,29.75,NNW,337,7.0,10.0,71,0.00,,,0.00,Weather View 32 v70,2013-03-25 00:33:00,
2013-03-24 21:01:00,35.0,28.2,29.75,NW,315,6.0,12.0,76,0.00,,,0.00,Weather View 32 v70,2013-03-25 01:01:00,
2013-03-24 21:31:00,34.0,30.0,29.76,NNW,337,7.0,12.0,85,0.00,,,0.00,Weather View 32 v70,2013-03-25 01:31:00,
2013-03-24 22:01:00,35.0,31.8,29.74,NNW,337,7.0,15.0,88,0.00,,,0.00,Weather View 32 v70,2013-03-25 02:01:00,
2013-03-24 22:31:00,34.0,33.7,29.75,NNW,337,8.0,15.0,99,0.00,,,0.00,Weather View 32 v70,2013-03-25 02:31:00,
2013-03-24 23:00:00,32.0,32.0,29.77,WNW,292,6.0,13.0,100,0.00,,,0.00,Weather View 32 v70,2013-03-25 03:00:00,
2013-03-24 23:30:00,31.0,31.0,29.78,NW,315,4.0,11.0,100,0.00,,,0.00,Weather View 32 v70,2013-03-25 03:30:00,